Regional Weather Roundup
Issued by NWS Raleigh/Durham, NC

Home | Current Version | Previous Version | Text Only | Print | Product List | Glossary On
Versions: 1 2 3 4 5 6 7 8 9 10 11 12 13 14 15 16 17 18 19 20 21 22 23 24 25 26 27 28 29 30 31 32 33 34 35 36 37 38 39 40 41 42 43 44 45 46 47 48 49 50
000
ASUS42 KRAH 020910
RWRRAH
NORTH CAROLINA WEATHER ROUNDUP
NATIONAL WEATHER SERVICE RALEIGH NC
500 AM EDT THU OCT 02 2014

NOTE: "FAIR" INDICATES FEW OR NO CLOUDS BELOW 12,000 FEET WITH NO
SIGNIFICANT WEATHER AND/OR OBSTRUCTIONS TO VISIBILITY.

NCZ001-053-055-056-065-067-021000-
WESTERN NORTH CAROLINA

CITY           SKY/WX    TMP DP  RH WIND       PRES   REMARKS
ASHEVILLE      FOG       57  57 100 CALM      30.12S VSB 1/4
JEFFERSON      FOG       51  50  97 CALM      30.15S VSB 1/2
MORGANTON      CLEAR     59  59  99 CALM      30.13R
HICKORY        PTCLDY    61  59  93 CALM      30.07R FOG
RUTHERFORDTON  CLOUDY    63  61  94 N3        30.08S
MOUNT AIRY       N/A     60  58  92 CALM      30.10S FOG
BOONE          CLEAR     47  47 100 CALM      30.16S FOG
$$

NCZ021-022-025-041-071-084-088-021000-
CENTRAL NORTH CAROLINA

CITY           SKY/WX    TMP DP  RH WIND       PRES   REMARKS
CHARLOTTE      PTCLDY    64  61  90 S3        30.06R
GREENSBORO     FOG       61  61 100 CALM      30.07S VSB 1/2
WINSTON-SALEM  FOG       60  58  92 CALM      30.09R VSB 1/2
RALEIGH-DURHAM MOCLDY    60  58  92 CALM      30.08R FOG
FORT BRAGG     CLOUDY    64  63  97 E2        30.05S FOG
FAYETTEVILLE   CLOUDY    64  63  96 CALM      30.05S FOG
BURLINGTON     FOG       60  58  92 CALM      30.08R VSB 3/4
LAURINBURG     FOG       61  61 100 CALM      30.06R VSB 1/4
$$

NCZ011-015-027-028-043-044-047-080-103-021000-
NORTHEASTERN NORTH CAROLINA

CITY           SKY/WX    TMP DP  RH WIND       PRES   REMARKS
ROCKY MT-WILSO CLOUDY    59  58  96 SW3       30.07S FOG
GREENVILLE     LGT RAIN  63  63 100 CALM      30.08S
WASHINGTON     CLEAR     59  58  97 CALM      30.07R
ELIZABETH CITY CLOUDY    62  62 100 CALM      30.06S
MANTEO         MOCLDY    64  62  90 CALM      30.05S
CAPE HATTERAS  CLEAR     65  62  90 NE3       30.05R
$$

NCZ078-087-090-091-093-098-101-021000-
SOUTHEASTERN NORTH CAROLINA

CITY           SKY/WX    TMP DP  RH WIND       PRES   REMARKS
LUMBERTON      PTCLDY    61  61 100 CALM      30.05S FOG
GOLDSBORO      CLEAR     60  59  98 CALM      30.05S
KINSTON          N/A     59  59  99 CALM      30.07S FOG
KENANSVILLE    PTCLDY    57  57 100 CALM      30.08R FOG
NEW BERN       FOG       63  60  90 CALM      30.07S VSB 1/4
CHERRY POINT   PTCLDY    63  62  97 CALM      30.07R
BEAUFORT       CLEAR     65  64  97 NE3       30.06R
JACKSONVILLE   CLEAR     62  60  93 CALM      30.06R
WILMINGTON     CLEAR     62  61  96 CALM      30.05S
$$



USA.gov is the U.S. government's official web portal to all federal, state and local government web resources and services.